Time,TemperatureF,DewpointF,PressureIn,WindDirection,WindDirectionDegrees,WindSpeedMPH,WindSpeedGustMPH,Humidity,HourlyPrecipIn,Conditions,Clouds,dailyrainin,SoftwareType,DateUTC
2013-07-25 00:00:00,69.4,64.7,29.84,North,5,0.0,9.0,85,0.00,,,0.00,VWS V14.01,2013-07-25 04:00:00,
2013-07-25 00:01:00,69.4,64.7,29.84,NW,321,6.0,9.0,85,0.00,,,0.00,VWS V14.01,2013-07-25 04:01:00,
2013-07-25 00:06:00,69.3,64.6,29.85,NE,34,2.0,9.0,85,0.00,,,0.00,VWS V14.01,2013-07-25 04:06:00,
2013-07-25 00:11:00,69.2,64.5,29.85,NNE,24,1.0,9.0,85,0.00,,,0.00,VWS V14.01,2013-07-25 04:11:00,
2013-07-25 00:16:00,69.1,64.1,29.84,North,11,4.0,9.0,84,0.00,,,0.00,VWS V14.01,2013-07-25 04:16:00,
2013-07-25 00:21:00,69.0,64.0,29.85,North,355,3.0,9.0,84,0.00,,,0.00,VWS V14.01,2013-07-25 04:21:00,
2013-07-25 00:26:00,68.9,63.9,29.85,WNW,302,8.0,10.0,84,0.00,,,0.00,VWS V14.01,2013-07-25 04:26:00,
2013-07-25 00:30:00,68.7,63.3,29.85,North,9,2.0,10.0,83,0.00,,,0.00,VWS V14.01,2013-07-25 04:30:00,
2013-07-25 00:31:00,68.7,63.3,29.85,WNW,299,4.0,10.0,83,0.00,,,0.00,VWS V14.01,2013-07-25 04:31:00,
2013-07-25 00:36:00,68.6,62.9,29.85,NNE,22,0.0,8.0,82,0.00,,,0.00,VWS V14.01,2013-07-25 04:36:00,
2013-07-25 00:41:00,68.5,62.8,29.85,NNE,18,2.0,9.0,82,0.00,,,0.00,VWS V14.01,2013-07-25 04:41:00,
2013-07-25 00:46:00,68.3,62.2,29.85,ENE,58,5.0,11.0,81,0.00,,,0.00,VWS V14.01,2013-07-25 04:46:00,
2013-07-25 00:51:00,68.3,62.6,29.85,NNW,336,2.0,11.0,82,0.00,,,0.00,VWS V14.01,2013-07-25 04:51:00,
2013-07-25 00:56:00,68.1,62.4,29.85,NNW,344,6.0,11.0,82,0.00,,,0.00,VWS V14.01,2013-07-25 04:56:00,
2013-07-25 01:00:00,68.0,62.0,29.85,ENE,57,7.0,11.0,81,0.00,,,0.00,VWS V14.01,2013-07-25 05:00:00,
2013-07-25 01:01:00,68.0,62.0,29.85,NW,315,5.0,11.0,81,0.00,,,0.00,VWS V14.01,2013-07-25 05:01:00,
2013-07-25 01:06:00,67.8,61.8,29.84,NE,36,4.0,11.0,81,0.00,,,0.00,VWS V14.01,2013-07-25 05:06:00,
2013-07-25 01:12:00,67.7,61.7,29.84,North,355,5.0,13.0,81,0.00,,,0.00,VWS V14.01,2013-07-25 05:12:00,
2013-07-25 01:17:00,67.6,61.9,29.85,North,360,4.0,13.0,82,0.00,,,0.00,VWS V14.01,2013-07-25 05:17:00,
2013-07-25 01:22:00,67.5,61.8,29.85,NE,43,4.0,13.0,82,0.00,,,0.00,VWS V14.01,2013-07-25 05:22:00,
2013-07-25 01:27:00,67.4,61.7,29.85,NNE,14,2.0,13.0,82,0.00,,,0.00,VWS V14.01,2013-07-25 05:27:00,
2013-07-25 01:30:00,67.3,61.6,29.85,NW,323,1.0,13.0,82,0.00,,,0.00,VWS V14.01,2013-07-25 05:30:00,
2013-07-25 01:32:00,67.3,61.6,29.85,NW,323,6.0,13.0,82,0.00,,,0.00,VWS V14.01,2013-07-25 05:32:00,
2013-07-25 01:37:00,67.3,62.0,29.86,North,5,4.0,5.0,83,0.00,,,0.00,VWS V14.01,2013-07-25 05:37:00,
2013-07-25 01:42:00,67.3,61.6,29.86,North,5,1.0,14.0,82,0.00,,,0.00,VWS V14.01,2013-07-25 05:42:00,
2013-07-25 01:47:00,67.2,61.2,29.86,WNW,299,5.0,14.0,81,0.00,,,0.00,VWS V14.01,2013-07-25 05:47:00,
2013-07-25 01:52:00,67.2,61.2,29.87,North,9,4.0,14.0,81,0.00,,,0.00,VWS V14.01,2013-07-25 05:52:00,
2013-07-25 01:57:00,67.1,61.1,29.86,NE,37,7.0,14.0,81,0.00,,,0.00,VWS V14.01,2013-07-25 05:57:00,
2013-07-25 02:00:00,66.9,60.9,29.86,NW,316,8.0,14.0,81,0.00,,,0.00,VWS V14.01,2013-07-25 06:00:00,
2013-07-25 02:02:00,66.9,60.9,29.86,NE,50,6.0,14.0,81,0.00,,,0.00,VWS V14.01,2013-07-25 06:02:00,
2013-07-25 02:07:00,66.7,60.7,29.86,North,355,4.0,6.0,81,0.00,,,0.00,VWS V14.01,2013-07-25 06:07:00,
2013-07-25 02:12:00,66.6,60.2,29.86,NW,308,0.0,7.0,80,0.00,,,0.00,VWS V14.01,2013-07-25 06:12:00,
2013-07-25 02:17:00,66.5,60.2,29.86,NE,38,5.0,12.0,80,0.00,,,0.00,VWS V14.01,2013-07-25 06:17:00,
2013-07-25 02:22:00,66.3,60.0,29.86,ENE,65,3.0,12.0,80,0.00,,,0.00,VWS V14.01,2013-07-25 06:22:00,
2013-07-25 02:27:00,66.2,59.5,29.87,ENE,62,1.0,12.0,79,0.00,,,0.00,VWS V14.01,2013-07-25 06:27:00,
2013-07-25 02:30:00,66.1,59.4,29.86,NW,309,4.0,12.0,79,0.00,,,0.00,VWS V14.01,2013-07-25 06:30:00,
2013-07-25 02:32:00,66.1,59.4,29.86,North,5,3.0,12.0,79,0.00,,,0.00,VWS V14.01,2013-07-25 06:32:00,
2013-07-25 02:37:00,65.9,59.2,29.87,NE,34,1.0,8.0,79,0.00,,,0.00,VWS V14.01,2013-07-25 06:37:00,
2013-07-25 02:42:00,65.9,59.2,29.87,NW,325,2.0,9.0,79,0.00,,,0.00,VWS V14.01,2013-07-25 06:42:00,
2013-07-25 02:47:00,65.8,58.8,29.88,NNE,33,3.0,12.0,78,0.00,,,0.00,VWS V14.01,2013-07-25 06:47:00,
2013-07-25 02:52:00,65.8,58.8,29.88,NE,48,4.0,12.0,78,0.00,,,0.00,VWS V14.01,2013-07-25 06:52:00,
2013-07-25 02:57:00,65.7,58.7,29.87,NE,40,1.0,12.0,78,0.00,,,0.00,VWS V14.01,2013-07-25 06:57:00,
2013-07-25 03:00:00,65.6,58.9,29.87,North,11,1.0,12.0,79,0.00,,,0.00,VWS V14.01,2013-07-25 07:00:00,
2013-07-25 03:02:00,65.6,58.9,29.87,North,9,1.0,12.0,79,0.00,,,0.00,VWS V14.01,2013-07-25 07:02:00,
2013-07-25 03:07:00,65.6,58.9,29.87,NE,46,2.0,10.0,79,0.00,,,0.00,VWS V14.01,2013-07-25 07:07:00,
2013-07-25 03:12:00,65.5,58.8,29.87,North,355,7.0,12.0,79,0.00,,,0.00,VWS V14.01,2013-07-25 07:12:00,
2013-07-25 03:17:00,65.5,59.2,29.88,North,355,3.0,12.0,80,0.00,,,0.00,VWS V14.01,2013-07-25 07:17:00,
2013-07-25 03:22:00,65.4,59.1,29.87,WNW,290,2.0,12.0,80,0.00,,,0.00,VWS V14.01,2013-07-25 07:22:00,
2013-07-25 03:27:00,65.3,59.0,29.87,NNW,328,3.0,12.0,80,0.00,,,0.00,VWS V14.01,2013-07-25 07:27:00,
2013-07-25 03:30:00,65.3,59.0,29.88,NE,54,3.0,12.0,80,0.00,,,0.00,VWS V14.01,2013-07-25 07:30:00,
2013-07-25 03:32:00,65.2,58.9,29.88,NE,42,1.0,12.0,80,0.00,,,0.00,VWS V14.01,2013-07-25 07:32:00,
2013-07-25 03:37:00,65.2,58.9,29.87,NNE,17,3.0,13.0,80,0.00,,,0.00,VWS V14.01,2013-07-25 07:37:00,
2013-07-25 03:42:00,65.2,59.2,29.88,NE,44,5.0,13.0,81,0.00,,,0.00,VWS V14.01,2013-07-25 07:42:00,
2013-07-25 03:47:00,65.1,59.1,29.89,NNE,15,2.0,13.0,81,0.00,,,0.00,VWS V14.01,2013-07-25 07:47:00,
2013-07-25 03:52:00,65.1,59.5,29.89,NNW,341,6.0,13.0,82,0.00,,,0.00,VWS V14.01,2013-07-25 07:52:00,
2013-07-25 03:57:00,65.0,59.0,29.89,NNE,20,3.0,13.0,81,0.00,,,0.00,VWS V14.01,2013-07-25 07:57:00,
2013-07-25 04:00:00,64.9,58.9,29.89,NW,310,3.0,13.0,81,0.00,,,0.00,VWS V14.01,2013-07-25 08:00:00,
2013-07-25 04:02:00,64.9,58.9,29.89,North,11,4.0,13.0,81,0.00,,,0.00,VWS V14.01,2013-07-25 08:02:00,
2013-07-25 04:07:00,64.9,59.3,29.89,NNW,338,1.0,8.0,82,0.00,,,0.00,VWS V14.01,2013-07-25 08:07:00,
2013-07-25 04:12:00,64.8,58.8,29.90,North,355,2.0,8.0,81,0.00,,,0.00,VWS V14.01,2013-07-25 08:12:00,
2013-07-25 04:17:00,64.7,58.7,29.90,ENE,66,9.0,9.0,81,0.00,,,0.00,VWS V14.01,2013-07-25 08:17:00,
2013-07-25 04:22:00,64.6,58.7,29.89,WNW,298,6.0,11.0,81,0.00,,,0.00,VWS V14.01,2013-07-25 08:22:00,
2013-07-25 04:27:00,64.4,58.5,29.89,NE,36,4.0,11.0,81,0.00,,,0.00,VWS V14.01,2013-07-25 08:27:00,
2013-07-25 04:30:00,64.4,58.8,29.89,NE,35,5.0,11.0,82,0.00,,,0.00,VWS V14.01,2013-07-25 08:30:00,
2013-07-25 04:32:00,64.4,58.8,29.89,ENE,69,4.0,11.0,82,0.00,,,0.00,VWS V14.01,2013-07-25 08:32:00,
2013-07-25 04:37:00,64.2,58.6,29.89,NNE,31,3.0,12.0,82,0.00,,,0.00,VWS V14.01,2013-07-25 08:37:00,
2013-07-25 04:42:00,64.1,58.5,29.89,East,79,7.0,12.0,82,0.00,,,0.00,VWS V14.01,2013-07-25 08:42:00,
2013-07-25 04:47:00,64.1,58.5,29.89,North,5,2.0,12.0,82,0.00,,,0.00,VWS V14.01,2013-07-25 08:47:00,
2013-07-25 04:52:00,64.0,58.4,29.89,NE,52,2.0,12.0,82,0.00,,,0.00,VWS V14.01,2013-07-25 08:52:00,
2013-07-25 04:57:00,63.9,58.3,29.89,NW,324,3.0,12.0,82,0.00,,,0.00,VWS V14.01,2013-07-25 08:57:00,
2013-07-25 05:02:00,63.8,58.5,29.89,NNW,338,5.0,12.0,83,0.00,,,0.00,VWS V14.01,2013-07-25 09:02:00,
2013-07-25 05:07:00,63.8,58.2,29.89,NNW,329,2.0,11.0,82,0.00,,,0.00,VWS V14.01,2013-07-25 09:07:00,
2013-07-25 05:12:00,63.8,58.5,29.90,NE,49,4.0,11.0,83,0.00,,,0.00,VWS V14.01,2013-07-25 09:12:00,
2013-07-25 05:17:00,63.7,58.5,29.90,NNE,24,1.0,11.0,83,0.00,,,0.00,VWS V14.01,2013-07-25 09:17:00,
2013-07-25 05:22:00,63.7,58.5,29.90,NNE,17,7.0,11.0,83,0.00,,,0.00,VWS V14.01,2013-07-25 09:22:00,
2013-07-25 05:27:00,63.6,58.3,29.90,NE,39,3.0,11.0,83,0.00,,,0.00,VWS V14.01,2013-07-25 09:27:00,
2013-07-25 05:30:00,63.6,58.3,29.91,North,5,2.0,11.0,83,0.00,,,0.00,VWS V14.01,2013-07-25 09:30:00,
2013-07-25 05:32:00,63.6,58.3,29.90,North,355,3.0,11.0,83,0.00,,,0.00,VWS V14.01,2013-07-25 09:32:00,
2013-07-25 05:37:00,63.6,58.3,29.90,NW,322,1.0,11.0,83,0.00,,,0.00,VWS V14.01,2013-07-25 09:37:00,
2013-07-25 05:42:00,63.7,58.8,29.91,NW,325,6.0,11.0,84,0.00,,,0.00,VWS V14.01,2013-07-25 09:42:00,
2013-07-25 05:47:00,63.6,58.3,29.91,North,11,2.0,11.0,83,0.00,,,0.00,VWS V14.01,2013-07-25 09:47:00,
2013-07-25 05:52:00,63.6,58.3,29.91,NW,321,4.0,11.0,83,0.00,,,0.00,VWS V14.01,2013-07-25 09:52:00,
2013-07-25 05:57:00,63.6,58.7,29.91,NNE,18,3.0,12.0,84,0.00,,,0.00,VWS V14.01,2013-07-25 09:57:00,
2013-07-25 06:00:00,63.6,58.7,29.91,North,11,5.0,12.0,84,0.00,,,0.00,VWS V14.01,2013-07-25 10:00:00,
2013-07-25 06:02:00,63.6,58.7,29.91,NE,34,4.0,12.0,84,0.00,,,0.00,VWS V14.01,2013-07-25 10:02:00,
2013-07-25 06:07:00,63.7,58.8,29.92,NNW,336,4.0,9.0,84,0.00,,,0.00,VWS V14.01,2013-07-25 10:07:00,
2013-07-25 06:12:00,63.7,58.5,29.92,North,355,4.0,9.0,83,0.00,,,0.00,VWS V14.01,2013-07-25 10:12:00,
2013-07-25 06:17:00,63.8,58.5,29.91,NE,34,4.0,11.0,83,0.00,,,0.00,VWS V14.01,2013-07-25 10:17:00,
2013-07-25 06:22:00,63.8,58.9,29.91,NNE,17,4.0,11.0,84,0.00,,,0.00,VWS V14.01,2013-07-25 10:22:00,
2013-07-25 06:27:00,63.9,58.6,29.92,North,355,1.0,11.0,83,0.00,,,0.00,VWS V14.01,2013-07-25 10:27:00,
2013-07-25 06:30:00,64.0,59.1,29.92,ENE,73,2.0,11.0,84,0.00,,,0.00,VWS V14.01,2013-07-25 10:30:00,
2013-07-25 06:32:00,64.0,58.7,29.92,NNE,15,5.0,11.0,83,0.00,,,0.00,VWS V14.01,2013-07-25 10:32:00,
2013-07-25 06:37:00,64.0,58.7,29.92,NE,55,2.0,9.0,83,0.00,,,0.00,VWS V14.01,2013-07-25 10:37:00,
2013-07-25 06:42:00,64.0,59.1,29.92,North,360,3.0,9.0,84,0.00,,,0.00,VWS V14.01,2013-07-25 10:42:00,
2013-07-25 06:47:00,64.0,59.1,29.92,East,82,6.0,9.0,84,0.00,,,0.00,VWS V14.01,2013-07-25 10:47:00,
2013-07-25 06:52:00,64.1,58.8,29.92,NE,51,2.0,10.0,83,0.00,,,0.00,VWS V14.01,2013-07-25 10:52:00,
2013-07-25 06:57:00,64.2,59.3,29.92,North,355,2.0,10.0,84,0.00,,,0.00,VWS V14.01,2013-07-25 10:57:00,
2013-07-25 07:02:00,64.4,59.5,29.92,NNE,31,2.0,10.0,84,0.00,,,0.00,VWS V14.01,2013-07-25 11:02:00,
2013-07-25 07:07:00,64.5,59.2,29.92,North,9,7.0,9.0,83,0.00,,,0.00,VWS V14.01,2013-07-25 11:07:00,
2013-07-25 07:12:00,64.5,59.6,29.93,NNW,327,6.0,9.0,84,0.00,,,0.00,VWS V14.01,2013-07-25 11:12:00,
2013-07-25 07:17:00,64.6,59.7,29.93,NNE,28,1.0,11.0,84,0.00,,,0.00,VWS V14.01,2013-07-25 11:17:00,
2013-07-25 07:22:00,64.7,59.4,29.93,North,360,5.0,11.0,83,0.00,,,0.00,VWS V14.01,2013-07-25 11:22:00,
2013-07-25 07:27:00,64.7,59.4,29.93,NE,48,2.0,11.0,83,0.00,,,0.00,VWS V14.01,2013-07-25 11:27:00,
2013-07-25 07:30:00,64.8,59.5,29.94,NE,38,5.0,13.0,83,0.00,,,0.00,VWS V14.01,2013-07-25 11:30:00,
2013-07-25 07:32:00,64.8,59.5,29.94,North,5,13.0,13.0,83,0.00,,,0.00,VWS V14.01,2013-07-25 11:32:00,
2013-07-25 07:37:00,64.7,59.1,29.94,ENE,78,7.0,12.0,82,0.00,,,0.00,VWS V14.01,2013-07-25 11:37:00,
2013-07-25 07:42:00,64.7,59.4,29.94,ENE,58,1.0,12.0,83,0.00,,,0.00,VWS V14.01,2013-07-25 11:42:00,
2013-07-25 07:47:00,64.7,59.4,29.94,NE,46,3.0,12.0,83,0.00,,,0.00,VWS V14.01,2013-07-25 11:47:00,
2013-07-25 07:52:00,64.8,59.5,29.94,NNE,22,4.0,12.0,83,0.00,,,0.00,VWS V14.01,2013-07-25 11:52:00,
2013-07-25 07:57:00,64.8,59.5,29.94,NNW,329,8.0,12.0,83,0.00,,,0.00,VWS V14.01,2013-07-25 11:57:00,
2013-07-25 08:00:00,64.9,59.6,29.95,NE,46,2.0,12.0,83,0.00,,,0.00,VWS V14.01,2013-07-25 12:00:00,
2013-07-25 08:02:00,64.9,59.6,29.95,NE,34,7.0,12.0,83,0.00,,,0.00,VWS V14.01,2013-07-25 12:02:00,
2013-07-25 08:07:00,64.9,59.3,29.95,NNW,338,5.0,12.0,82,0.00,,,0.00,VWS V14.01,2013-07-25 12:07:00,
2013-07-25 08:12:00,65.0,59.4,29.95,North,355,4.0,12.0,82,0.00,,,0.00,VWS V14.01,2013-07-25 12:12:00,
2013-07-25 08:17:00,65.0,59.4,29.95,SSW,202,3.0,12.0,82,0.00,,,0.00,VWS V14.01,2013-07-25 12:17:00,
2013-07-25 08:22:00,65.0,59.0,29.95,NNE,17,3.0,12.0,81,0.00,,,0.00,VWS V14.01,2013-07-25 12:22:00,
2013-07-25 08:27:00,65.0,59.0,29.96,NE,42,5.0,12.0,81,0.00,,,0.00,VWS V14.01,2013-07-25 12:27:00,
2013-07-25 08:30:00,65.1,59.5,29.96,NNE,32,2.0,12.0,82,0.00,,,0.00,VWS V14.01,2013-07-25 12:30:00,
2013-07-25 08:32:00,65.1,59.5,29.96,North,5,3.0,12.0,82,0.00,,,0.00,VWS V14.01,2013-07-25 12:32:00,
2013-07-25 08:37:00,65.0,59.0,29.96,North,355,5.0,10.0,81,0.00,,,0.00,VWS V14.01,2013-07-25 12:37:00,
2013-07-25 08:42:00,65.1,59.5,29.95,NNE,31,3.0,10.0,82,0.00,,,0.00,VWS V14.01,2013-07-25 12:42:00,
2013-07-25 08:47:00,65.3,59.3,29.95,NE,45,8.0,13.0,81,0.00,,,0.00,VWS V14.01,2013-07-25 12:47:00,
2013-07-25 08:52:00,65.3,59.3,29.96,NNE,22,5.0,13.0,81,0.00,,,0.00,VWS V14.01,2013-07-25 12:52:00,
2013-07-25 08:57:00,65.2,59.2,29.96,SW,229,3.0,13.0,81,0.00,,,0.00,VWS V14.01,2013-07-25 12:57:00,
2013-07-25 09:00:00,65.1,59.1,29.96,NNW,328,2.0,13.0,81,0.00,,,0.00,VWS V14.01,2013-07-25 13:00:00,
2013-07-25 09:02:00,65.1,59.1,29.96,NNE,32,4.0,13.0,81,0.00,,,0.00,VWS V14.01,2013-07-25 13:02:00,
2013-07-25 09:07:00,64.8,58.8,29.97,ENE,69,3.0,10.0,81,0.00,,,0.00,VWS V14.01,2013-07-25 13:07:00,
2013-07-25 09:12:00,64.7,59.1,29.96,NE,45,1.0,10.0,82,0.00,,,0.00,VWS V14.01,2013-07-25 13:12:00,
2013-07-25 09:17:00,64.7,58.7,29.97,North,355,6.0,12.0,81,0.00,,,0.00,VWS V14.01,2013-07-25 13:17:00,
2013-07-25 09:22:00,64.7,59.1,29.97,NE,46,6.0,12.0,82,0.00,,,0.00,VWS V14.01,2013-07-25 13:22:00,
2013-07-25 09:27:00,64.6,59.0,29.98,NE,44,3.0,12.0,82,0.00,,,0.00,VWS V14.01,2013-07-25 13:27:00,
2013-07-25 09:30:00,64.5,58.9,29.98,NE,36,4.0,12.0,82,0.00,,,0.00,VWS V14.01,2013-07-25 13:30:00,
2013-07-25 09:32:00,64.5,58.9,29.98,NNW,338,8.0,12.0,82,0.00,,,0.00,VWS V14.01,2013-07-25 13:32:00,
2013-07-25 09:37:00,64.4,58.8,29.98,NE,41,5.0,11.0,82,0.00,,,0.00,VWS V14.01,2013-07-25 13:37:00,
2013-07-25 09:42:00,64.3,58.7,29.98,WNW,301,7.0,13.0,82,0.00,,,0.00,VWS V14.01,2013-07-25 13:42:00,
2013-07-25 09:47:00,64.3,59.0,29.98,NNE,25,2.0,13.0,83,0.00,,,0.00,VWS V14.01,2013-07-25 13:47:00,
2013-07-25 09:52:00,64.3,59.0,29.98,East,90,5.0,13.0,83,0.00,,,0.00,VWS V14.01,2013-07-25 13:52:00,
2013-07-25 09:57:00,64.2,58.9,29.98,NNE,31,5.0,13.0,83,0.00,,,0.00,VWS V14.01,2013-07-25 13:57:00,
2013-07-25 10:00:00,64.2,58.9,29.97,North,349,2.0,13.0,83,0.00,,,0.00,VWS V14.01,2013-07-25 14:00:00,
2013-07-25 10:02:00,64.2,59.3,29.97,NE,49,4.0,13.0,84,0.00,,,0.00,VWS V14.01,2013-07-25 14:02:00,
2013-07-25 10:07:00,64.4,59.5,29.97,NNW,344,6.0,7.0,84,0.00,,,0.00,VWS V14.01,2013-07-25 14:07:00,
2013-07-25 10:12:00,64.6,59.3,29.96,North,5,9.0,12.0,83,0.00,,,0.00,VWS V14.01,2013-07-25 14:12:00,
2013-07-25 10:17:00,64.9,59.6,29.97,NNE,25,5.0,12.0,83,0.00,,,0.00,VWS V14.01,2013-07-25 14:17:00,
2013-07-25 10:22:00,65.2,59.9,29.97,NE,45,1.0,12.0,83,0.00,,,0.00,VWS V14.01,2013-07-25 14:22:00,
2013-07-25 10:27:00,65.5,59.9,29.97,WNW,292,4.0,12.0,82,0.00,,,0.00,VWS V14.01,2013-07-25 14:27:00,
2013-07-25 10:32:00,65.6,60.0,29.98,East,88,1.0,12.0,82,0.00,,,0.00,VWS V14.01,2013-07-25 14:32:00,
2013-07-25 10:37:00,65.6,60.0,29.98,NNE,32,4.0,8.0,82,0.00,,,0.00,VWS V14.01,2013-07-25 14:37:00,
2013-07-25 10:42:00,65.4,60.1,29.99,ENE,59,5.0,12.0,83,0.00,,,0.00,VWS V14.01,2013-07-25 14:42:00,
2013-07-25 10:47:00,65.1,59.5,29.98,NE,38,3.0,12.0,82,0.00,,,0.00,VWS V14.01,2013-07-25 14:47:00,
2013-07-25 10:52:00,65.0,59.7,29.98,North,9,4.0,12.0,83,0.00,,,0.00,VWS V14.01,2013-07-25 14:52:00,
2013-07-25 10:57:00,65.0,59.7,29.98,NE,51,4.0,12.0,83,0.00,,,0.00,VWS V14.01,2013-07-25 14:57:00,
2013-07-25 11:00:00,65.0,59.7,29.98,NE,42,5.0,12.0,83,0.00,,,0.00,VWS V14.01,2013-07-25 15:00:00,
2013-07-25 11:02:00,65.0,59.7,29.98,NE,42,5.0,12.0,83,0.00,,,0.00,VWS V14.01,2013-07-25 15:02:00,
2013-07-25 11:07:00,64.8,59.5,29.98,NNW,339,2.0,12.0,83,0.00,,,0.00,VWS V14.01,2013-07-25 15:07:00,
2013-07-25 11:12:00,64.8,59.9,29.98,NNW,346,4.0,12.0,84,0.00,,,0.00,VWS V14.01,2013-07-25 15:12:00,
2013-07-25 11:17:00,64.9,60.0,29.98,WNW,301,6.0,12.0,84,0.00,,,0.00,VWS V14.01,2013-07-25 15:17:00,
2013-07-25 11:22:00,64.8,59.9,29.98,NNE,26,5.0,12.0,84,0.00,,,0.00,VWS V14.01,2013-07-25 15:22:00,
2013-07-25 11:27:00,64.8,59.9,29.98,North,5,0.0,12.0,84,0.00,,,0.00,VWS V14.01,2013-07-25 15:27:00,
2013-07-25 11:30:00,64.9,60.0,29.98,NE,36,4.0,15.0,84,0.00,,,0.00,VWS V14.01,2013-07-25 15:30:00,
2013-07-25 11:32:00,64.9,60.0,29.98,NNE,24,5.0,6.0,84,0.00,,,0.00,VWS V14.01,2013-07-25 15:32:00,
2013-07-25 11:37:00,65.0,60.0,29.98,NE,55,4.0,10.0,84,0.00,,,0.00,VWS V14.01,2013-07-25 15:37:00,
2013-07-25 11:42:00,64.8,59.9,29.98,NE,37,4.0,12.0,84,0.00,,,0.00,VWS V14.01,2013-07-25 15:42:00,
2013-07-25 11:47:00,64.6,60.0,29.98,NE,41,2.0,13.0,85,0.00,,,0.00,VWS V14.01,2013-07-25 15:47:00,
2013-07-25 11:52:00,64.6,60.0,29.98,North,360,2.0,13.0,85,0.00,,,0.00,VWS V14.01,2013-07-25 15:52:00,
2013-07-25 11:57:00,64.8,60.2,29.98,NE,48,1.0,13.0,85,0.00,,,0.00,VWS V14.01,2013-07-25 15:57:00,
2013-07-25 12:00:00,64.9,60.3,29.98,NE,35,6.0,13.0,85,0.00,,,0.00,VWS V14.01,2013-07-25 16:00:00,
2013-07-25 12:02:00,64.9,60.3,29.98,NE,35,6.0,13.0,85,0.00,,,0.00,VWS V14.01,2013-07-25 16:02:00,
2013-07-25 12:07:00,64.8,60.2,29.98,NNW,330,2.0,12.0,85,0.00,,,0.00,VWS V14.01,2013-07-25 16:07:00,
2013-07-25 12:12:00,64.9,60.3,29.98,NW,313,2.0,12.0,85,0.00,,,0.00,VWS V14.01,2013-07-25 16:12:00,
2013-07-25 12:17:00,65.1,60.8,29.98,NNE,12,3.0,12.0,86,0.00,,,0.00,VWS V14.01,2013-07-25 16:17:00,
2013-07-25 12:22:00,65.3,60.7,29.98,NE,34,3.0,12.0,85,0.00,,,0.00,VWS V14.01,2013-07-25 16:22:00,
2013-07-25 12:27:00,65.3,60.3,29.98,NNE,17,9.0,12.0,84,0.00,,,0.00,VWS V14.01,2013-07-25 16:27:00,
2013-07-25 12:30:00,65.1,60.5,29.98,NNE,18,8.0,12.0,85,0.00,,,0.00,VWS V14.01,2013-07-25 16:30:00,
2013-07-25 12:32:00,65.0,60.0,29.98,ENE,62,2.0,8.0,84,0.00,,,0.00,VWS V14.01,2013-07-25 16:32:00,
2013-07-25 12:37:00,64.9,60.6,29.98,NNE,32,3.0,12.0,86,0.00,,,0.00,VWS V14.01,2013-07-25 16:37:00,
2013-07-25 12:42:00,64.8,60.5,29.99,NE,41,2.0,12.0,86,0.00,,,0.00,VWS V14.01,2013-07-25 16:42:00,
2013-07-25 12:47:00,64.8,60.5,29.98,ENE,62,3.0,12.0,86,0.00,,,0.00,VWS V14.01,2013-07-25 16:47:00,
2013-07-25 12:53:00,64.8,60.5,29.98,NNE,24,6.0,12.0,86,0.00,,,0.00,VWS V14.01,2013-07-25 16:53:00,
2013-07-25 12:58:00,64.7,60.4,29.99,NE,40,1.0,12.0,86,0.00,,,0.00,VWS V14.01,2013-07-25 16:58:00,
2013-07-25 13:00:00,64.6,60.3,29.99,ENE,63,4.0,12.0,86,0.00,,,0.00,VWS V14.01,2013-07-25 17:00:00,
2013-07-25 13:03:00,64.5,60.2,29.99,NNE,14,5.0,8.0,86,0.00,,,0.00,VWS V14.01,2013-07-25 17:03:00,
2013-07-25 13:08:00,64.4,60.5,29.99,NE,44,3.0,8.0,87,0.00,,,0.00,VWS V14.01,2013-07-25 17:08:00,
2013-07-25 13:13:00,64.3,60.3,29.99,NNE,22,4.0,10.0,87,0.00,,,0.00,VWS V14.01,2013-07-25 17:13:00,
2013-07-25 13:18:00,64.1,60.2,29.99,North,360,1.0,10.0,87,0.00,,,0.00,VWS V14.01,2013-07-25 17:18:00,
2013-07-25 13:23:00,64.1,60.2,29.99,NW,321,5.0,11.0,87,0.00,,,0.00,VWS V14.01,2013-07-25 17:23:00,
2013-07-25 13:28:00,64.0,60.4,29.99,NE,53,2.0,11.0,88,0.00,,,0.00,VWS V14.01,2013-07-25 17:28:00,
2013-07-25 13:30:00,63.9,60.3,29.99,NNE,26,2.0,11.0,88,0.00,,,0.00,VWS V14.01,2013-07-25 17:30:00,
2013-07-25 13:33:00,63.9,60.3,29.99,NE,38,2.0,4.0,88,0.00,,,0.00,VWS V14.01,2013-07-25 17:33:00,
2013-07-25 13:38:00,63.8,60.2,29.99,NNW,327,4.0,7.0,88,0.00,,,0.00,VWS V14.01,2013-07-25 17:38:00,
2013-07-25 13:43:00,63.8,60.2,29.99,North,5,6.0,11.0,88,0.00,,,0.00,VWS V14.01,2013-07-25 17:43:00,
2013-07-25 13:48:00,63.7,60.4,29.99,NNE,13,6.0,11.0,89,0.00,,,0.00,VWS V14.01,2013-07-25 17:48:00,
2013-07-25 13:53:00,63.5,60.2,29.99,NNE,17,4.0,11.0,89,0.00,,,0.00,VWS V14.01,2013-07-25 17:53:00,
2013-07-25 13:58:00,63.4,60.4,29.98,NNE,22,8.0,11.0,90,0.00,,,0.00,VWS V14.01,2013-07-25 17:58:00,
2013-07-25 14:00:00,63.3,60.3,29.98,NNW,336,3.0,11.0,90,0.00,,,0.00,VWS V14.01,2013-07-25 18:00:00,
2013-07-25 14:03:00,63.3,60.3,29.98,NNW,329,5.0,5.0,90,0.00,,,0.00,VWS V14.01,2013-07-25 18:03:00,
2013-07-25 14:08:00,63.3,60.6,29.98,NE,49,3.0,8.0,91,0.00,,,0.00,VWS V14.01,2013-07-25 18:08:00,
2013-07-25 14:13:00,63.2,60.5,29.98,NNW,329,4.0,11.0,91,0.00,,,0.00,VWS V14.01,2013-07-25 18:13:00,
2013-07-25 14:18:00,63.2,60.5,29.98,NE,40,1.0,12.0,91,0.00,,,0.00,VWS V14.01,2013-07-25 18:18:00,
2013-07-25 14:23:00,63.4,61.0,29.98,NE,38,3.0,12.0,92,0.00,,,0.00,VWS V14.01,2013-07-25 18:23:00,
2013-07-25 14:28:00,63.3,60.6,29.97,NNE,33,6.0,12.0,91,0.00,,,0.00,VWS V14.01,2013-07-25 18:28:00,
2013-07-25 14:30:00,63.2,60.5,29.97,NNW,332,6.0,12.0,91,0.00,,,0.00,VWS V14.01,2013-07-25 18:30:00,
2013-07-25 14:33:00,63.2,60.5,29.97,NNW,347,3.0,7.0,91,0.00,,,0.00,VWS V14.01,2013-07-25 18:33:00,
2013-07-25 14:38:00,63.3,60.9,29.97,NE,40,4.0,8.0,92,0.00,,,0.00,VWS V14.01,2013-07-25 18:38:00,
2013-07-25 14:43:00,63.5,61.1,29.97,NNE,32,4.0,8.0,92,0.00,,,0.00,VWS V14.01,2013-07-25 18:43:00,
2013-07-25 14:48:00,63.6,61.2,29.97,North,355,3.0,8.0,92,0.00,,,0.00,VWS V14.01,2013-07-25 18:48:00,
2013-07-25 14:53:00,63.5,60.8,29.97,NNE,12,6.0,14.0,91,0.00,,,0.00,VWS V14.01,2013-07-25 18:53:00,
2013-07-25 14:58:00,63.5,61.1,29.97,NNE,22,2.0,14.0,92,0.00,,,0.00,VWS V14.01,2013-07-25 18:58:00,
2013-07-25 15:00:00,63.6,60.9,29.97,North,5,4.0,14.0,91,0.00,,,0.00,VWS V14.01,2013-07-25 19:00:00,
2013-07-25 15:03:00,63.6,60.9,29.97,North,351,5.0,6.0,91,0.00,,,0.00,VWS V14.01,2013-07-25 19:03:00,
2013-07-25 15:08:00,63.7,61.0,29.97,NNE,28,0.0,10.0,91,0.00,,,0.00,VWS V14.01,2013-07-25 19:08:00,
2013-07-25 15:13:00,63.9,61.2,29.98,ENE,64,3.0,12.0,91,0.00,,,0.00,VWS V14.01,2013-07-25 19:13:00,
2013-07-25 15:18:00,63.8,60.8,29.98,NE,36,2.0,13.0,90,0.00,,,0.00,VWS V14.01,2013-07-25 19:18:00,
2013-07-25 15:23:00,63.8,61.1,29.98,NNW,329,5.0,13.0,91,0.00,,,0.00,VWS V14.01,2013-07-25 19:23:00,
2013-07-25 15:28:00,63.6,60.9,29.98,North,11,4.0,13.0,91,0.00,,,0.00,VWS V14.01,2013-07-25 19:28:00,
2013-07-25 15:30:00,63.7,61.3,29.98,ENE,69,0.0,13.0,92,0.00,,,0.00,VWS V14.01,2013-07-25 19:30:00,
2013-07-25 15:33:00,63.7,61.3,29.98,NW,320,1.0,2.0,92,0.00,,,0.00,VWS V14.01,2013-07-25 19:33:00,
2013-07-25 15:38:00,63.4,61.0,29.98,NNE,30,6.0,11.0,92,0.00,,,0.00,VWS V14.01,2013-07-25 19:38:00,
2013-07-25 15:43:00,63.3,60.9,29.98,NNE,15,2.0,11.0,92,0.00,,,0.00,VWS V14.01,2013-07-25 19:43:00,
2013-07-25 15:48:00,63.3,60.9,29.98,NW,317,6.0,11.0,92,0.00,,,0.00,VWS V14.01,2013-07-25 19:48:00,
2013-07-25 15:53:00,63.3,60.9,29.97,North,11,3.0,11.0,92,0.00,,,0.00,VWS V14.01,2013-07-25 19:53:00,
2013-07-25 15:58:00,63.4,61.0,29.97,North,9,4.0,11.0,92,0.00,,,0.00,VWS V14.01,2013-07-25 19:58:00,
2013-07-25 16:00:00,63.3,60.9,29.97,NNE,19,6.0,11.0,92,0.00,,,0.00,VWS V14.01,2013-07-25 20:00:00,
2013-07-25 16:03:00,63.2,60.8,29.97,NE,46,4.0,5.0,92,0.00,,,0.00,VWS V14.01,2013-07-25 20:03:00,
2013-07-25 16:08:00,63.2,60.8,29.97,NW,305,3.0,10.0,92,0.00,,,0.00,VWS V14.01,2013-07-25 20:08:00,
2013-07-25 16:13:00,63.2,60.8,29.97,NE,48,3.0,10.0,92,0.00,,,0.00,VWS V14.01,2013-07-25 20:13:00,
2013-07-25 16:18:00,63.2,60.8,29.97,NNE,30,4.0,10.0,92,0.00,,,0.00,VWS V14.01,2013-07-25 20:18:00,
2013-07-25 16:23:00,63.2,60.8,29.97,NW,322,4.0,10.0,92,0.00,,,0.00,VWS V14.01,2013-07-25 20:23:00,
2013-07-25 16:28:00,63.2,60.8,29.97,ENE,60,3.0,10.0,92,0.00,,,0.00,VWS V14.01,2013-07-25 20:28:00,
2013-07-25 16:30:00,63.2,60.8,29.97,NE,35,3.0,11.0,92,0.00,,,0.00,VWS V14.01,2013-07-25 20:30:00,
2013-07-25 16:33:00,63.2,60.8,29.97,NE,52,2.0,6.0,92,0.00,,,0.00,VWS V14.01,2013-07-25 20:33:00,
2013-07-25 16:38:00,63.2,60.5,29.97,NE,36,2.0,9.0,91,0.00,,,0.00,VWS V14.01,2013-07-25 20:38:00,
2013-07-25 16:43:00,63.1,60.4,29.97,NE,42,6.0,9.0,91,0.00,,,0.00,VWS V14.01,2013-07-25 20:43:00,
2013-07-25 16:48:00,63.1,60.4,29.97,North,350,1.0,11.0,91,0.00,,,0.00,VWS V14.01,2013-07-25 20:48:00,
2013-07-25 16:53:00,63.1,60.4,29.98,NNW,347,2.0,11.0,91,0.00,,,0.00,VWS V14.01,2013-07-25 20:53:00,
2013-07-25 16:58:00,63.0,60.3,29.98,NW,310,5.0,11.0,91,0.00,,,0.00,VWS V14.01,2013-07-25 20:58:00,
2013-07-25 17:00:00,63.0,60.3,29.98,NW,315,2.0,11.0,91,0.00,,,0.00,VWS V14.01,2013-07-25 21:00:00,
2013-07-25 17:03:00,62.9,60.2,29.98,NNE,29,3.0,7.0,91,0.00,,,0.00,VWS V14.01,2013-07-25 21:03:00,
2013-07-25 17:08:00,63.0,60.0,29.98,NNE,24,1.0,11.0,90,0.00,,,0.00,VWS V14.01,2013-07-25 21:08:00,
2013-07-25 17:13:00,63.0,60.3,29.98,North,10,5.0,11.0,91,0.00,,,0.00,VWS V14.01,2013-07-25 21:13:00,
2013-07-25 17:18:00,63.0,60.3,29.98,NE,50,1.0,11.0,91,0.00,,,0.00,VWS V14.01,2013-07-25 21:18:00,
2013-07-25 17:23:00,63.0,60.3,29.98,NNW,333,3.0,11.0,91,0.00,,,0.00,VWS V14.01,2013-07-25 21:23:00,
2013-07-25 17:28:00,62.9,60.2,29.98,NE,40,3.0,11.0,91,0.00,,,0.00,VWS V14.01,2013-07-25 21:28:00,
2013-07-25 17:30:00,62.9,60.2,29.98,NW,317,3.0,11.0,91,0.00,,,0.00,VWS V14.01,2013-07-25 21:30:00,
2013-07-25 17:33:00,62.9,60.2,29.98,NNE,27,3.0,5.0,91,0.00,,,0.00,VWS V14.01,2013-07-25 21:33:00,
2013-07-25 17:38:00,62.8,60.1,29.98,NE,53,6.0,8.0,91,0.00,,,0.00,VWS V14.01,2013-07-25 21:38:00,
2013-07-25 17:43:00,62.9,60.5,29.98,NE,38,7.0,8.0,92,0.00,,,0.00,VWS V14.01,2013-07-25 21:43:00,
2013-07-25 17:48:00,62.8,60.1,29.98,NNE,18,4.0,8.0,91,0.00,,,0.00,VWS V14.01,2013-07-25 21:48:00,
2013-07-25 17:53:00,62.7,60.0,29.98,ENE,76,3.0,8.0,91,0.00,,,0.00,VWS V14.01,2013-07-25 21:53:00,
2013-07-25 17:58:00,62.7,60.3,29.98,NE,42,3.0,8.0,92,0.00,,,0.00,VWS V14.01,2013-07-25 21:58:00,
2013-07-25 18:00:00,62.7,60.3,29.98,NNE,17,8.0,8.0,92,0.00,,,0.00,VWS V14.01,2013-07-25 22:00:00,
2013-07-25 18:03:00,62.7,60.3,29.98,NE,44,2.0,5.0,92,0.00,,,0.00,VWS V14.01,2013-07-25 22:03:00,
2013-07-25 18:08:00,62.6,60.2,29.98,NNW,334,5.0,12.0,92,0.00,,,0.00,VWS V14.01,2013-07-25 22:08:00,
2013-07-25 18:13:00,62.6,60.2,29.97,ENE,65,3.0,12.0,92,0.00,,,0.00,VWS V14.01,2013-07-25 22:13:00,
2013-07-25 18:18:00,62.5,60.2,29.98,WNW,290,3.0,12.0,92,0.00,,,0.00,VWS V14.01,2013-07-25 22:18:00,
2013-07-25 18:23:00,62.5,60.2,29.98,NNW,336,6.0,12.0,92,0.00,,,0.00,VWS V14.01,2013-07-25 22:23:00,
2013-07-25 18:28:00,62.5,60.2,29.98,NNW,342,4.0,12.0,92,0.00,,,0.00,VWS V14.01,2013-07-25 22:28:00,
2013-07-25 18:30:00,62.4,60.0,29.98,NNW,340,3.0,12.0,92,0.00,,,0.00,VWS V14.01,2013-07-25 22:30:00,
2013-07-25 18:33:00,62.4,60.0,29.98,NNE,13,2.0,5.0,92,0.00,,,0.00,VWS V14.01,2013-07-25 22:33:00,
2013-07-25 18:38:00,62.4,60.0,29.98,NNW,337,5.0,9.0,92,0.00,,,0.00,VWS V14.01,2013-07-25 22:38:00,
2013-07-25 18:43:00,62.3,60.0,29.98,NE,54,3.0,11.0,92,0.00,,,0.00,VWS V14.01,2013-07-25 22:43:00,
2013-07-25 18:48:00,62.4,60.0,29.98,NE,38,2.0,11.0,92,0.00,,,0.00,VWS V14.01,2013-07-25 22:48:00,
2013-07-25 18:53:00,62.3,60.0,29.98,NE,36,2.0,11.0,92,0.00,,,0.00,VWS V14.01,2013-07-25 22:53:00,
2013-07-25 18:58:00,62.3,60.0,29.98,NNE,32,1.0,13.0,92,0.00,,,0.00,VWS V14.01,2013-07-25 22:58:00,
2013-07-25 19:00:00,62.3,60.0,29.98,NNE,16,2.0,13.0,92,0.00,,,0.00,VWS V14.01,2013-07-25 23:00:00,
2013-07-25 19:03:00,62.3,60.0,29.98,NNE,16,2.0,13.0,92,0.00,,,0.00,VWS V14.01,2013-07-25 23:03:00,
2013-07-25 19:08:00,62.4,60.0,29.98,NNE,24,2.0,8.0,92,0.00,,,0.00,VWS V14.01,2013-07-25 23:08:00,
2013-07-25 19:13:00,62.5,60.2,29.98,NNE,30,2.0,8.0,92,0.00,,,0.00,VWS V14.01,2013-07-25 23:13:00,
2013-07-25 19:18:00,62.5,60.2,29.98,North,350,5.0,8.0,92,0.00,,,0.00,VWS V14.01,2013-07-25 23:18:00,
2013-07-25 19:23:00,62.5,60.2,29.98,NE,44,1.0,8.0,92,0.00,,,0.00,VWS V14.01,2013-07-25 23:23:00,
2013-07-25 19:28:00,62.5,60.2,29.98,NNE,12,4.0,8.0,92,0.00,,,0.00,VWS V14.01,2013-07-25 23:28:00,
2013-07-25 19:30:00,62.6,60.2,29.98,North,11,2.0,8.0,92,0.00,,,0.00,VWS V14.01,2013-07-25 23:30:00,
2013-07-25 19:33:00,62.6,60.2,29.98,ENE,63,1.0,7.0,92,0.00,,,0.00,VWS V14.01,2013-07-25 23:33:00,
2013-07-25 19:38:00,62.6,59.9,29.98,NNE,17,2.0,9.0,91,0.00,,,0.00,VWS V14.01,2013-07-25 23:38:00,
2013-07-25 19:43:00,62.6,60.2,29.98,NNE,16,1.0,9.0,92,0.00,,,0.00,VWS V14.01,2013-07-25 23:43:00,
2013-07-25 19:48:00,62.6,60.2,29.98,NE,49,2.0,9.0,92,0.00,,,0.00,VWS V14.01,2013-07-25 23:48:00,
2013-07-25 19:53:00,62.6,60.2,29.98,NE,45,2.0,9.0,92,0.00,,,0.00,VWS V14.01,2013-07-25 23:53:00,
2013-07-25 19:58:00,62.5,60.2,29.98,North,355,7.0,9.0,92,0.00,,,0.00,VWS V14.01,2013-07-25 23:58:00,
2013-07-25 20:00:00,62.4,60.3,29.98,NW,321,5.0,9.0,93,0.00,,,0.00,VWS V14.01,2013-07-26 00:00:00,
2013-07-25 20:03:00,62.4,60.3,29.98,NE,38,5.0,5.0,93,0.00,,,0.00,VWS V14.01,2013-07-26 00:03:00,
2013-07-25 20:08:00,62.3,60.2,29.98,NNE,23,1.0,9.0,93,0.00,,,0.00,VWS V14.01,2013-07-26 00:08:00,
2013-07-25 20:13:00,62.2,60.2,29.97,NNW,342,2.0,13.0,93,0.00,,,0.00,VWS V14.01,2013-07-26 00:13:00,
2013-07-25 20:18:00,62.2,60.2,29.97,NNW,344,4.0,13.0,93,0.00,,,0.00,VWS V14.01,2013-07-26 00:18:00,
2013-07-25 20:23:00,62.1,60.1,29.97,North,9,3.0,13.0,93,0.00,,,0.00,VWS V14.01,2013-07-26 00:23:00,
2013-07-25 20:28:00,62.0,60.0,29.97,NNW,336,3.0,13.0,93,0.00,,,0.00,VWS V14.01,2013-07-26 00:28:00,
2013-07-25 20:30:00,62.0,60.0,29.97,North,355,6.0,13.0,93,0.00,,,0.00,VWS V14.01,2013-07-26 00:30:00,
2013-07-25 20:33:00,62.0,60.0,29.97,ENE,59,4.0,6.0,93,0.00,,,0.00,VWS V14.01,2013-07-26 00:33:00,
2013-07-25 20:38:00,62.1,60.4,29.97,NNE,15,5.0,8.0,94,0.00,,,0.00,VWS V14.01,2013-07-26 00:38:00,
2013-07-25 20:43:00,62.0,60.3,29.97,NE,49,5.0,8.0,94,0.00,,,0.00,VWS V14.01,2013-07-26 00:43:00,
2013-07-25 20:48:00,62.0,60.3,29.97,NNW,348,1.0,8.0,94,0.00,,,0.00,VWS V14.01,2013-07-26 00:48:00,
2013-07-25 20:53:00,61.8,60.1,29.97,NNW,346,3.0,8.0,94,0.00,,,0.00,VWS V14.01,2013-07-26 00:53:00,
2013-07-25 20:58:00,61.8,60.1,29.97,WNW,296,2.0,8.0,94,0.00,,,0.00,VWS V14.01,2013-07-26 00:58:00,
2013-07-25 21:00:00,61.8,60.1,29.97,NNW,344,9.0,9.0,94,0.00,,,0.00,VWS V14.01,2013-07-26 01:00:00,
2013-07-25 21:03:00,61.8,60.1,29.97,NE,35,2.0,6.0,94,0.00,,,0.00,VWS V14.01,2013-07-26 01:03:00,
2013-07-25 21:08:00,61.8,60.1,29.97,NNW,327,2.0,11.0,94,0.00,,,0.00,VWS V14.01,2013-07-26 01:08:00,
2013-07-25 21:13:00,61.8,60.1,29.97,NE,47,2.0,11.0,94,0.00,,,0.00,VWS V14.01,2013-07-26 01:13:00,
2013-07-25 21:18:00,61.8,60.1,29.97,North,355,5.0,11.0,94,0.00,,,0.00,VWS V14.01,2013-07-26 01:18:00,
2013-07-25 21:23:00,61.7,60.0,29.97,NNE,14,2.0,11.0,94,0.00,,,0.00,VWS V14.01,2013-07-26 01:23:00,
2013-07-25 21:28:00,61.7,60.0,29.97,NW,308,1.0,11.0,94,0.00,,,0.00,VWS V14.01,2013-07-26 01:28:00,
2013-07-25 21:30:00,61.7,60.0,29.97,ENE,67,0.0,11.0,94,0.00,,,0.00,VWS V14.01,2013-07-26 01:30:00,
2013-07-25 21:33:00,61.7,60.0,29.97,NNW,339,3.0,4.0,94,0.00,,,0.00,VWS V14.01,2013-07-26 01:33:00,
2013-07-25 21:38:00,61.8,60.1,29.97,NW,313,5.0,8.0,94,0.00,,,0.00,VWS V14.01,2013-07-26 01:38:00,
2013-07-25 21:43:00,61.8,60.1,29.97,NNE,15,3.0,11.0,94,0.00,,,0.00,VWS V14.01,2013-07-26 01:43:00,
2013-07-25 21:48:00,61.9,60.2,29.96,NE,44,3.0,11.0,94,0.00,,,0.00,VWS V14.01,2013-07-26 01:48:00,
2013-07-25 21:53:00,61.9,60.2,29.97,ENE,71,2.0,11.0,94,0.00,,,0.00,VWS V14.01,2013-07-26 01:53:00,
2013-07-25 21:58:00,62.0,60.3,29.97,NW,313,3.0,14.0,94,0.00,,,0.00,VWS V14.01,2013-07-26 01:58:00,
2013-07-25 22:00:00,62.0,60.3,29.97,NE,38,2.0,14.0,94,0.00,,,0.00,VWS V14.01,2013-07-26 02:00:00,
2013-07-25 22:03:00,62.0,60.3,29.97,NNE,16,2.0,6.0,94,0.00,,,0.00,VWS V14.01,2013-07-26 02:03:00,
2013-07-25 22:08:00,62.0,60.0,29.96,North,5,5.0,9.0,93,0.00,,,0.00,VWS V14.01,2013-07-26 02:08:00,
2013-07-25 22:13:00,62.1,60.1,29.96,NNE,26,4.0,10.0,93,0.00,,,0.00,VWS V14.01,2013-07-26 02:13:00,
2013-07-25 22:18:00,62.1,60.1,29.96,NNW,338,7.0,10.0,93,0.00,,,0.00,VWS V14.01,2013-07-26 02:18:00,
2013-07-25 22:23:00,62.2,60.2,29.96,NE,40,3.0,11.0,93,0.00,,,0.00,VWS V14.01,2013-07-26 02:23:00,
2013-07-25 22:28:00,62.3,60.2,29.96,NNE,31,2.0,11.0,93,0.00,,,0.00,VWS V14.01,2013-07-26 02:28:00,
2013-07-25 22:30:00,62.5,60.5,29.96,NNW,335,6.0,11.0,93,0.00,,,0.00,VWS V14.01,2013-07-26 02:30:00,
2013-07-25 22:33:00,62.5,60.5,29.95,NNW,335,2.0,6.0,93,0.00,,,0.00,VWS V14.01,2013-07-26 02:33:00,
2013-07-25 22:38:00,62.6,60.5,29.95,NNE,31,3.0,8.0,93,0.00,,,0.00,VWS V14.01,2013-07-26 02:38:00,
2013-07-25 22:43:00,62.7,60.3,29.95,NNW,329,4.0,9.0,92,0.00,,,0.00,VWS V14.01,2013-07-26 02:43:00,
2013-07-25 22:48:00,62.9,60.5,29.95,NE,41,3.0,12.0,92,0.00,,,0.00,VWS V14.01,2013-07-26 02:48:00,
2013-07-25 22:53:00,63.0,60.6,29.95,NE,34,7.0,12.0,92,0.00,,,0.00,VWS V14.01,2013-07-26 02:53:00,
2013-07-25 22:58:00,63.1,60.7,29.95,NNE,27,0.0,14.0,92,0.00,,,0.00,VWS V14.01,2013-07-26 02:58:00,
2013-07-25 23:00:00,63.2,60.5,29.95,WNW,298,5.0,14.0,91,0.00,,,0.00,VWS V14.01,2013-07-26 03:00:00,
2013-07-25 23:03:00,63.2,60.5,29.95,WSW,253,5.0,10.0,91,0.00,,,0.00,VWS V14.01,2013-07-26 03:03:00,
2013-07-25 23:08:00,63.3,60.6,29.95,East,93,3.0,11.0,91,0.00,,,0.00,VWS V14.01,2013-07-26 03:08:00,
2013-07-25 23:13:00,63.4,60.7,29.95,ENE,59,4.0,13.0,91,0.00,,,0.00,VWS V14.01,2013-07-26 03:13:00,
2013-07-25 23:18:00,63.5,60.8,29.95,NE,50,2.0,13.0,91,0.00,,,0.00,VWS V14.01,2013-07-26 03:18:00,
2013-07-25 23:23:00,63.6,60.9,29.95,NE,34,5.0,13.0,91,0.00,,,0.00,VWS V14.01,2013-07-26 03:23:00,
2013-07-25 23:28:00,63.7,61.0,29.95,NNE,28,5.0,13.0,91,0.00,,,0.00,VWS V14.01,2013-07-26 03:28:00,
2013-07-25 23:30:00,63.8,61.1,29.95,NE,40,5.0,13.0,91,0.00,,,0.00,VWS V14.01,2013-07-26 03:30:00,
2013-07-25 23:33:00,63.8,61.1,29.95,ENE,78,5.0,6.0,91,0.00,,,0.00,VWS V14.01,2013-07-26 03:33:00,
2013-07-25 23:38:00,63.8,61.1,29.94,East,99,3.0,8.0,91,0.00,,,0.00,VWS V14.01,2013-07-26 03:38:00,
2013-07-25 23:43:00,63.8,61.4,29.94,NNE,21,6.0,9.0,92,0.00,,,0.00,VWS V14.01,2013-07-26 03:43:00,
2013-07-25 23:48:00,63.7,61.3,29.94,NE,39,7.0,10.0,92,0.00,,,0.00,VWS V14.01,2013-07-26 03:48:00,
2013-07-25 23:53:00,63.6,61.2,29.94,NNE,15,5.0,10.0,92,0.00,,,0.00,VWS V14.01,2013-07-26 03:53:00,
2013-07-25 23:58:00,63.4,61.3,29.94,NE,54,3.0,12.0,93,0.00,,,0.00,VWS V14.01,2013-07-26 03:58:00,